Wind_Speed
7 7 5 4 6 6 2 2 2 7 8 7 7 9 7 7 6 5 4 4 3 3 2 2 2 3 3 4 4 5 5 6 7 7 7 7 8 7 7 7 7 7 7 7 7 6 6 5 5
7 7 7 6 8 11 8 2 4 8 9 9 9 8 7 6 6 5 4 3 3 3 3 3 3 4 4 5 6 7 7 8 8 8 9 9 9 9 9 9 10 10 9 9 8 8 7 6 6
9 9 9 8 9 13 12 7 9 11 11 11 10 9 8 7 6 5 4 4 3 3 4 4 5 5 6 7 8 9 9 9 10 10 10 11 11 11 11 11 11 11 11 10 10 9 9 8 7
13 12 11 10 8 13 12 13 14 13 13 13 13 11 9 8 7 6 5 5 5 5 5 6 6 7 8 9 10 11 12 12 11 11 11 11 11 11 11 12 12 12 11 11 11 10 10 9 9
15 14 13 12 12 18 15 15 16 16 15 14 15 12 10 8 7 6 5 6 5 6 6 7 8 10 11 12 12 13 13 13 12 12 12 12 12 13 13 14 13 13 13 12 12 12 11 10 10
18 17 15 12 14 21 20 15 17 20 19 17 16 14 10 8 7 6 6 6 6 7 8 9 11 12 13 14 14 14 14 14 14 14 14 14 15 15 15 16 16 15 15 14 13 13 13 12 11
20 20 17 14 16 22 21 18 21 21 21 20 17 14 11 8 6 6 7 8 9 10 11 12 13 14 15 16 16 16 16 16 16 16 16 16 17 18 17 18 18 18 17 16 15 15 14 14 13
21 21 19 15 16 22 24 23 23 23 23 20 18 16 13 10 7 7 8 9 10 12 13 14 15 16 17 18 18 18 19 18 19 19 19 19 20 19 19 20 20 20 19 18 17 17 16 16 15
20 21 18 13 16 22 25 25 22 24 24 25 21 16 14 11 9 10 11 12 13 14 15 16 17 18 18 19 20 20 20 21 21 22 21 21 21 20 20 20 20 20 19 19 18 18 18 18 17
17 19 16 14 19 23 26 26 24 20 23 26 22 16 13 12 12 12 13 14 15 16 16 17 18 18 19 19 21 21 22 22 21 21 20 20 18 19 18 18 18 18 19 19 19 20 20 19 19
13 15 18 21 24 26 27 25 24 22 27 28 22 15 12 13 13 14 15 15 15 16 17 18 19 20 19 19 19 21 20 20 19 19 18 18 18 18 17 17 16 17 18 18 19 21 21 21 20
11 12 18 21 26 29 29 27 26 25 28 24 18 12 11 12 15 16 17 16 16 17 17 18 19 19 18 18 18 18 18 18 17 17 17 18 17 17 17 18 18 18 18 19 19 20 21 21 21
9 11 13 16 20 23 24 24 26 27 26 19 16 13 13 14 16 18 18 18 20 19 19 19 19 18 18 18 17 17 16 16 15 16 18 18 18 18 19 18 19 19 19 19 21 21 21 22 22
6 9 10 13 13 15 17 19 22 24 21 18 15 13 12 15 17 18 19 19 19 18 19 18 17 16 15 14 15 15 15 16 16 16 18 18 18 19 19 19 20 20 21 21 22 22 22 22 22
8 8 9 11 10 10 12 17 22 21 19 17 16 14 15 17 18 20 20 19 18 18 18 17 16 15 13 13 14 14 15 16 16 16 17 18 19 20 20 20 20 21 22 22 22 23 23 23 23
11 13 13 9 8 7 10 18 20 18 16 16 16 16 17 18 20 20 19 17 17 17 17 15 14 13 12 13 13 14 15 16 16 17 17 19 20 20 21 21 21 22 22 22 22 22 22 23 23
17 19 17 13 8 8 11 16 16 14 13 12 14 16 17 18 18 18 18 17 15 14 14 12 11 11 11 12 13 13 14 15 16 17 18 19 20 21 21 22 22 22 22 22 22 22 22 22 23
18 18 17 13 9 9 12 15 12 7 8 10 13 16 17 18 17 16 15 15 13 11 11 11 10 10 10 11 12 13 14 15 16 16 18 18 19 19 20 20 21 21 21 21 21 22 22 22 22
12 13 15 13 10 9 12 13 10 3 7 10 14 15 16 15 14 14 13 13 12 10 10 10 9 9 9 10 11 12 13 14 15 15 16 17 18 18 19 19 19 19 20 20 20 20 21 22 22
11 13 14 13 11 10 11 10 8 6 6 8 10 12 12 12 12 12 11 9 9 9 9 8 7 8 9 10 11 12 13 13 14 15 15 16 17 18 18 18 18 18 18 19 19 19 19 20 21
13 14 13 13 13 11 11 10 9 6 4 5 7 8 8 8 8 8 7 7 7 6 6 6 6 7 8 9 11 12 13 14 14 15 16 17 17 18 18 18 18 18 18 18 19 19 19 19 20
14 12 10 10 11 9 8 10 10 8 5 5 4 4 5 5 5 4 4 4 4 4 5 4 5 7 8 10 12 13 14 15 16 17 17 18 19 19 19 20 20 19 19 19 19 19 19 20 20
12 10 10 10 11 11 8 9 11 11 9 7 6 5 2 0 1 1 1 1 2 2 2 4 6 7 9 11 13 14 15 16 17 18 19 19 20 20 21 21 21 21 21 21 21 21 21 21 22
8 8 11 12 11 9 11 10 11 11 10 8 7 6 4 4 3 2 1 1 1 2 4 5 7 9 11 12 14 16 17 18 19 20 21 22 22 22 22 22 22 23 23 23 23 24 24 24 24
10 9 17 20 17 14 13 9 10 11 9 7 6 5 4 4 3 3 2 2 3 4 6 7 9 11 12 14 16 17 18 20 21 22 22 23 23 23 23 23 23 24 24 25 25 26 27 27 28
9 6 12 14 14 12 8 9 12 10 9 8 7 6 5 4 4 4 4 5 6 7 8 9 11 12 14 16 17 19 20 20 21 22 23 23 24 24 24 24 25 25 25 26 27 28 29 30 31
8 5 6 8 8 7 4 9 10 10 10 10 9 8 7 7 7 7 7 7 8 9 10 11 12 14 15 17 18 20 21 22 23 23 23 24 24 25 25 25 25 26 27 28 29 30 31 32 33
8 8 6 3 6 9 9 7 10 14 15 14 11 10 9 9 9 9 10 10 10 11 12 13 14 15 17 18 19 20 21 23 24 24 24 24 25 25 26 26 27 28 29 30 31 33 34 35 35
11 8 7 6 5 6 11 10 14 18 19 18 15 13 12 12 12 12 12 13 13 13 14 14 15 17 18 19 21 22 23 24 24 24 24 25 25 26 27 28 29 31 32 33 34 35 36 37 38
13 10 10 9 8 6 8 15 15 18 21 21 19 17 16 15 16 16 15 15 15 15 15 15 17 18 19 21 22 23 24 25 25 25 25 26 26 27 28 30 32 33 35 36 37 38 39 40 40
Wind_Direction
356 355 350 335 308 288 235 142 245 286 299 301 289 286 291 294 298 304 308 303 300 304 317 338 353 355 345 331 321 315 310 306 303 303 303 303 300 300 301 301 302 304 307 311 315 317 319 321 321
328 323 315 309 304 307 311 281 280 287 295 291 286 281 291 298 300 292 293 298 295 309 321 335 334 333 329 320 314 311 308 305 303 304 304 301 298 297 296 297 297 298 299 301 305 308 309 308 305
305 300 298 298 303 302 304 303 292 289 286 282 280 280 287 293 295 290 290 294 300 308 318 324 322 319 316 315 311 310 307 304 303 303 302 299 298 295 293 293 294 293 294 295 298 300 300 301 298
291 287 283 280 278 270 271 277 279 276 273 273 273 270 274 290 291 292 294 301 309 311 315 319 318 313 309 309 306 304 304 303 302 301 301 301 299 297 294 292 292 290 290 290 291 293 295 295 294
281 277 274 275 273 268 260 266 272 267 265 256 266 266 270 281 285 290 294 301 313 316 314 315 312 308 305 305 304 301 301 302 300 298 299 299 297 296 296 293 291 288 286 285 285 286 289 288 289
273 267 264 271 278 275 268 255 261 260 257 253 256 258 259 273 280 285 294 304 314 318 314 313 310 305 302 300 299 297 297 297 296 295 295 294 293 293 292 292 288 284 281 279 279 281 283 282 283
269 265 259 255 266 275 272 264 257 253 252 253 250 251 257 261 272 281 294 306 317 322 317 313 307 304 300 296 294 293 292 292 293 293 292 291 292 291 290 289 284 279 276 275 274 275 277 279 279
265 261 257 251 257 266 264 261 255 252 247 255 258 253 253 258 267 283 297 307 313 318 314 310 304 300 299 297 293 292 291 289 289 290 288 288 290 290 287 286 281 275 271 270 268 268 271 273 275
263 256 252 249 260 259 256 254 255 255 258 264 258 251 251 256 270 282 294 304 311 313 311 308 303 299 296 295 293 293 293 288 286 289 288 289 287 289 288 286 283 276 268 266 266 265 266 269 271
263 248 239 235 247 247 250 253 258 255 253 253 248 246 249 261 273 280 292 300 306 308 307 305 304 299 295 293 292 291 288 288 289 289 288 289 291 292 290 287 285 280 274 269 267 264 264 267 269
271 244 230 229 238 241 248 255 261 252 251 245 236 234 251 265 274 281 290 296 298 302 302 304 303 297 295 295 294 293 289 288 290 292 291 289 291 294 290 287 287 284 281 276 269 264 265 266 266
293 258 243 241 243 243 247 250 250 249 250 248 248 243 253 267 276 285 290 295 293 301 302 304 301 294 293 295 293 293 291 289 290 291 293 293 294 296 294 288 286 285 283 281 278 274 273 271 269
310 290 270 256 255 254 252 250 252 255 255 264 265 266 264 268 274 282 289 295 298 300 303 303 302 295 292 291 292 293 291 294 295 293 292 291 293 294 293 291 290 290 288 284 280 276 275 274 274
312 287 280 266 258 258 258 254 257 252 260 268 272 269 273 271 276 282 288 292 295 300 303 300 300 296 293 292 291 294 294 294 295 294 296 294 293 294 295 292 291 291 289 286 283 281 279 275 275
345 326 303 286 264 250 249 247 251 252 260 265 272 268 264 269 277 283 284 289 292 296 298 296 297 296 291 289 292 294 296 297 297 297 297 297 296 295 294 293 292 290 288 287 286 283 282 279 276
340 312 309 304 284 252 245 246 253 246 254 262 268 272 271 275 280 283 284 287 290 293 294 293 293 290 289 290 294 295 299 301 302 303 302 301 300 298 297 296 295 292 290 288 286 284 284 281 278
342 324 327 329 331 304 276 264 273 257 252 258 263 269 272 277 280 279 280 284 285 288 292 290 290 289 291 293 296 300 303 305 307 308 307 305 303 300 299 297 295 293 291 289 286 285 282 280 278
336 329 328 339 339 318 290 288 283 271 254 266 272 276 273 276 276 275 275 279 279 279 282 284 289 291 294 299 303 306 307 310 312 312 309 307 305 303 302 299 296 294 292 290 288 286 283 281 279
315 311 316 330 340 324 305 299 289 296 276 279 277 274 272 273 273 269 269 273 270 271 273 281 287 292 299 304 308 311 313 315 315 313 311 310 310 309 308 305 301 299 297 294 291 287 285 283 280
317 315 321 334 336 337 321 314 319 339 301 285 279 277 269 265 266 264 259 264 265 267 271 277 287 298 305 310 316 320 321 321 320 319 320 319 319 318 316 312 309 306 304 301 297 293 289 286 283
317 328 332 337 340 342 336 334 332 328 332 310 281 271 270 267 262 262 253 258 261 264 272 281 296 307 314 322 325 326 326 327 327 326 324 323 322 322 321 318 316 313 309 306 303 299 296 292 290
322 326 328 322 321 326 340 336 0 1 9 358 340 300 270 261 253 249 250 259 257 271 281 294 310 321 329 334 334 334 334 332 331 330 329 327 324 322 320 319 317 315 313 311 309 306 302 299 296
315 317 315 305 292 300 347 359 14 11 22 22 17 10 12 13 206 199 215 244 279 305 317 326 331 339 341 342 341 340 338 335 332 330 328 326 324 322 319 318 315 313 311 310 309 307 304 302 299
324 324 328 325 317 328 20 13 2 10 21 23 26 35 43 63 83 85 64 19 344 349 347 346 346 347 347 345 343 340 337 335 332 330 328 326 324 322 318 316 313 311 310 309 307 306 304 301 299
320 329 337 345 360 22 25 15 350 356 0 360 6 20 33 45 53 50 39 13 356 351 350 350 348 347 345 342 339 337 335 333 332 329 327 325 323 322 319 316 314 311 309 308 306 305 303 301 299
312 331 335 337 346 353 8 345 342 346 345 342 344 353 360 2 5 4 360 353 349 346 346 346 343 341 339 337 335 334 333 332 330 327 324 322 321 321 320 318 316 314 312 309 307 305 303 301 299
286 280 306 324 337 318 316 328 337 342 341 337 334 335 338 342 345 344 343 342 341 339 339 338 337 335 334 332 331 331 330 329 327 325 323 322 321 320 319 318 316 315 314 312 310 307 304 302 299
290 281 273 286 336 329 313 293 316 332 330 328 326 327 329 332 333 334 335 335 333 332 331 330 330 329 328 327 327 327 325 324 323 323 322 321 321 320 320 320 319 317 315 313 312 309 307 304 301
283 293 287 261 248 296 326 323 317 320 321 324 324 323 326 327 327 328 331 329 326 324 321 320 321 322 323 324 324 323 323 322 322 322 321 321 320 320 320 320 320 319 318 316 313 311 309 306 303
253 258 269 272 265 258 294 297 298 310 315 319 322 318 319 321 321 321 323 321 317 315 314 314 315 317 318 319 320 319 319 320 320 321 321 320 320 320 320 320 320 319 318 316 315 312 310 307 304
Height
5921 5920 5920 5919 5919 5916 5911 5911 5911 5913 5913 5913 5912 5911 5910 5909 5910 5911 5910 5909 5910 5910 5910 5911 5911 5911 5912 5912 5912 5912 5912 5912 5912 5911 5911 5910 5910 5909 5908 5907 5907 5906 5906 5905 5904 5904 5903 5903 5902
5920 5920 5919 5919 5918 5914 5908 5907 5909 5913 5913 5912 5911 5910 5909 5909 5910 5910 5909 5909 5910 5910 5910 5910 5910 5911 5911 5911 5912 5912 5911 5911 5911 5910 5910 5909 5909 5908 5908 5907 5906 5906 5905 5904 5904 5903 5903 5902 5902
5918 5918 5918 5918 5917 5913 5910 5908 5911 5912 5911 5911 5910 5910 5909 5909 5909 5908 5908 5909 5909 5909 5909 5909 5909 5910 5910 5910 5910 5910 5910 5910 5909 5909 5909 5908 5908 5907 5906 5906 5905 5904 5904 5903 5903 5902 5902 5901 5901
5916 5916 5916 5917 5915 5913 5910 5909 5910 5910 5909 5908 5908 5908 5907 5907 5907 5907 5907 5907 5908 5908 5908 5908 5909 5909 5909 5909 5909 5909 5909 5908 5908 5907 5907 5906 5906 5905 5905 5904 5903 5903 5902 5902 5901 5901 5900 5900 5900
5913 5913 5914 5913 5912 5910 5909 5907 5909 5908 5907 5904 5904 5905 5905 5906 5906 5906 5906 5906 5907 5907 5907 5907 5907 5907 5907 5907 5907 5907 5907 5906 5906 5905 5905 5904 5904 5904 5903 5902 5902 5901 5900 5900 5900 5899 5899 5898 5898
5909 5910 5910 5910 5910 5907 5906 5903 5906 5904 5904 5901 5900 5902 5902 5904 5904 5904 5904 5904 5905 5906 5905 5905 5905 5905 5905 5905 5905 5905 5905 5904 5904 5903 5903 5902 5902 5901 5901 5900 5900 5899 5898 5898 5897 5897 5897 5897 5896
5906 5905 5906 5907 5909 5906 5903 5902 5901 5900 5898 5897 5896 5898 5898 5901 5902 5902 5902 5902 5903 5904 5903 5903 5903 5903 5903 5902 5902 5902 5902 5902 5901 5901 5900 5899 5899 5898 5898 5898 5897 5896 5896 5895 5895 5894 5894 5894 5894
5900 5901 5902 5904 5907 5904 5900 5898 5894 5894 5892 5892 5891 5894 5895 5898 5899 5900 5900 5900 5900 5901 5901 5901 5900 5900 5900 5899 5899 5899 5899 5898 5898 5897 5897 5896 5895 5895 5894 5894 5893 5892 5892 5892 5891 5891 5891 5891 5891
5895 5897 5898 5902 5903 5900 5895 5893 5890 5891 5891 5889 5887 5888 5891 5894 5896 5897 5898 5898 5898 5898 5898 5898 5897 5897 5896 5896 5896 5895 5895 5894 5894 5893 5893 5892 5891 5891 5890 5889 5888 5887 5887 5887 5887 5887 5888 5888 5888
5890 5891 5894 5897 5896 5893 5890 5890 5888 5886 5886 5884 5881 5883 5888 5892 5894 5895 5895 5895 5895 5895 5894 5894 5894 5893 5892 5893 5892 5892 5891 5890 5889 5889 5888 5888 5887 5886 5886 5885 5884 5883 5883 5883 5883 5883 5884 5884 5884
5885 5886 5888 5888 5888 5887 5886 5886 5884 5881 5879 5876 5873 5879 5884 5888 5891 5892 5892 5892 5892 5891 5891 5890 5890 5889 5888 5888 5888 5887 5886 5885 5885 5885 5884 5884 5883 5882 5882 5882 5881 5880 5879 5879 5879 5879 5879 5880 5880
5882 5882 5882 5882 5881 5881 5882 5882 5879 5875 5872 5868 5868 5875 5883 5886 5888 5888 5888 5888 5886 5887 5886 5887 5886 5885 5885 5884 5884 5883 5882 5882 5881 5882 5881 5880 5879 5879 5878 5877 5877 5876 5875 5875 5875 5875 5875 5875 5875
5880 5879 5878 5877 5877 5876 5876 5876 5874 5871 5868 5869 5872 5877 5880 5882 5884 5885 5884 5884 5883 5883 5884 5883 5882 5882 5882 5881 5880 5880 5880 5879 5878 5878 5877 5876 5875 5875 5874 5873 5873 5872 5871 5871 5870 5870 5870 5870 5870
5878 5877 5876 5874 5872 5873 5874 5873 5869 5864 5863 5867 5869 5873 5875 5878 5880 5881 5881 5880 5880 5880 5880 5880 5880 5879 5878 5878 5878 5877 5876 5876 5875 5874 5873 5872 5872 5871 5870 5869 5868 5868 5867 5866 5865 5865 5865 5865 5865
5876 5875 5874 5872 5870 5870 5872 5870 5866 5862 5862 5865 5868 5870 5874 5875 5876 5877 5877 5877 5877 5877 5877 5877 5877 5876 5876 5875 5874 5874 5873 5872 5872 5871 5870 5869 5868 5867 5866 5865 5864 5863 5862 5862 5861 5860 5860 5860 5860
5876 5873 5870 5869 5868 5867 5869 5866 5862 5860 5862 5865 5868 5870 5871 5872 5873 5872 5872 5873 5874 5874 5874 5874 5874 5873 5873 5872 5872 5871 5870 5870 5869 5868 5867 5865 5864 5862 5861 5860 5860 5858 5857 5857 5856 5855 5855 5854 5854
5876 5871 5869 5869 5867 5866 5865 5862 5861 5860 5862 5863 5865 5867 5868 5868 5868 5869 5869 5870 5870 5871 5871 5871 5871 5871 5871 5870 5869 5869 5868 5867 5865 5864 5863 5861 5860 5858 5857 5856 5855 5853 5853 5852 5851 5850 5850 5849 5849
5878 5874 5870 5869 5867 5865 5864 5862 5861 5858 5860 5862 5863 5864 5865 5866 5865 5866 5866 5867 5868 5868 5869 5869 5869 5869 5869 5868 5867 5866 5865 5864 5862 5861 5859 5858 5856 5854 5853 5852 5850 5849 5848 5847 5846 5845 5844 5844 5843
5879 5876 5873 5869 5868 5867 5864 5860 5859 5858 5860 5860 5861 5861 5862 5862 5863 5863 5864 5865 5865 5866 5867 5867 5867 5867 5867 5866 5865 5864 5863 5861 5860 5858 5857 5855 5853 5851 5849 5848 5846 5845 5843 5842 5841 5840 5839 5838 5838
5878 5876 5872 5870 5869 5868 5863 5859 5856 5857 5858 5858 5859 5859 5859 5860 5860 5860 5861 5862 5863 5864 5865 5865 5866 5865 5864 5863 5862 5861 5860 5859 5857 5855 5853 5851 5849 5847 5846 5844 5842 5841 5839 5838 5836 5835 5834 5833 5833
5878 5875 5872 5870 5868 5867 5864 5860 5858 5856 5856 5856 5856 5857 5857 5857 5858 5858 5859 5860 5862 5862 5863 5864 5864 5863 5862 5861 5860 5859 5857 5856 5854 5853 5851 5849 5847 5845 5843 5841 5839 5837 5836 5834 5833 5831 5830 5829 5828
5878 5875 5872 5871 5869 5866 5864 5860 5858 5855 5855 5855 5855 5855 5856 5856 5856 5857 5858 5859 5860 5861 5862 5862 5862 5861 5860 5859 5858 5856 5855 5853 5851 5850 5848 5846 5844 5842 5839 5837 5835 5834 5832 5830 5829 5827 5825 5824 5823
5877 5875 5872 5868 5864 5862 5861 5861 5860 5858 5856 5856 5856 5856 5855 5855 5856 5857 5857 5858 5859 5860 5860 5860 5860 5859 5858 5857 5855 5853 5852 5850 5849 5847 5845 5843 5841 5838 5836 5834 5832 5830 5828 5826 5824 5823 5821 5819 5818
5876 5874 5871 5867 5862 5860 5862 5862 5861 5860 5859 5859 5858 5858 5857 5856 5856 5857 5857 5858 5859 5859 5859 5858 5858 5857 5856 5854 5853 5851 5849 5847 5845 5843 5841 5839 5837 5835 5833 5830 5828 5826 5824 5822 5820 5818 5816 5814 5812
5875 5874 5871 5866 5862 5861 5863 5864 5864 5862 5861 5861 5860 5859 5858 5858 5858 5857 5857 5858 5858 5857 5857 5856 5856 5855 5854 5852 5851 5849 5847 5845 5842 5840 5838 5835 5833 5831 5829 5826 5824 5821 5819 5817 5814 5812 5810 5808 5806
5875 5874 5873 5872 5868 5865 5864 5865 5865 5863 5863 5862 5861 5860 5859 5858 5858 5857 5857 5857 5856 5855 5855 5854 5853 5852 5851 5850 5848 5846 5844 5842 5840 5837 5835 5832 5829 5827 5824 5821 5819 5816 5814 5811 5809 5806 5803 5801 5798
5873 5873 5873 5872 5869 5867 5865 5864 5863 5863 5862 5862 5860 5859 5859 5858 5857 5856 5855 5855 5854 5853 5852 5852 5851 5850 5849 5847 5846 5843 5841 5838 5836 5834 5831 5828 5825 5822 5820 5817 5814 5811 5808 5805 5802 5799 5796 5793 5790
5872 5871 5871 5871 5869 5867 5865 5862 5862 5862 5861 5861 5860 5859 5857 5856 5855 5855 5854 5853 5852 5851 5850 5849 5849 5847 5846 5845 5843 5841 5838 5836 5833 5830 5827 5824 5821 5818 5815 5811 5808 5805 5802 5799 5795 5791 5788 5785 5781
5869 5869 5868 5869 5868 5867 5864 5863 5861 5861 5860 5859 5858 5857 5856 5855 5853 5852 5852 5850 5850 5849 5848 5847 5846 5845 5843 5841 5839 5837 5835 5832 5829 5826 5823 5820 5816 5813 5810 5806 5802 5799 5795 5791 5787 5783 5779 5775 5771
5864 5866 5867 5867 5867 5867 5866 5865 5860 5859 5858 5857 5856 5854 5854 5853 5852 5850 5849 5848 5847 5847 5846 5844 5843 5842 5840 5838 5836 5833 5831 5828 5825 5822 5818 5815 5811 5808 5804 5800 5796 5792 5787 5782 5778 5773 5768 5764 5760